CCM68JG LFKJ-LFPO

Flight info

Callsign CCM68JG
Flight time 1h 31m
Altitude 34000
Route TORTU DCT ERTEV DCT ENOBA DCT ASTIG DCT AOSTA DCT ORSUD DCT MOLUS DCT UNKIR DCT DJL
Aircraft A20N/M-SDE2E3FGHIRWXY/LB1

Departure

Time 2026-05-07 10:58
Airport Ajaccio Napoléon Bonaparte airport (LFKJ)

Arrival

Time 2026-05-07 12:30
Airport Paris-Orly Airport (LFPO)
Time Latitude Longitude Altitude Speed Heading
2026-05-07 10:26 41.91966 8.79573 33 ft 0 kts 344°
2026-05-07 10:52 41.91967 8.79573 34 ft 0 kts 344°
2026-05-07 10:52 41.91976 8.79572 34 ft 3 kts
2026-05-07 10:53 41.91989 8.79613 33 ft 7 kts 85°
2026-05-07 10:53 41.92013 8.79679 33 ft 9 kts 28°
2026-05-07 10:53 41.92089 8.79727 33 ft 13 kts 25°
2026-05-07 10:53 41.92179 8.79783 33 ft 14 kts 24°
2026-05-07 10:54 41.92274 8.79838 33 ft 15 kts 24°
2026-05-07 10:54 41.92372 8.79899 33 ft 15 kts 26°
2026-05-07 10:54 41.92472 8.79963 33 ft 16 kts 25°
2026-05-07 10:54 41.92575 8.80026 34 ft 16 kts 24°
2026-05-07 10:55 41.92677 8.80090 34 ft 16 kts 25°
2026-05-07 10:55 41.92775 8.80166 36 ft 16 kts 38°
2026-05-07 10:55 41.92858 8.80267 36 ft 16 kts 43°
2026-05-07 10:55 41.92938 8.80370 37 ft 15 kts 46°
2026-05-07 10:56 41.92966 8.80452 37 ft 3 kts 87°
2026-05-07 10:56 41.92966 8.80454 37 ft 0 kts 89°
2026-05-07 10:56 41.92966 8.80461 37 ft 1 kts 93°
2026-05-07 10:57 41.92962 8.80487 37 ft 5 kts 103°
2026-05-07 10:57 41.92941 8.80573 37 ft 9 kts 137°
2026-05-07 10:57 41.92881 8.80550 37 ft 10 kts 205°
2026-05-07 10:57 41.92776 8.80481 37 ft 38 kts 205°
2026-05-07 10:58 41.92283 8.80175 35 ft 114 kts 206°
2026-05-07 10:58 41.91394 8.79622 178 ft 157 kts 206°
2026-05-07 10:58 41.90466 8.78934 873 ft 154 kts 224°
2026-05-07 10:58 41.89872 8.77769 1530 ft 156 kts 244°
2026-05-07 10:59 41.89375 8.76490 2161 ft 157 kts 244°
2026-05-07 10:59 41.88877 8.75200 2779 ft 158 kts 244°
2026-05-07 10:59 41.88375 8.73898 3360 ft 161 kts 244°
2026-05-07 10:59 41.87841 8.72512 3806 ft 175 kts 244°
2026-05-07 11:00 41.87242 8.71016 4246 ft 191 kts 243°
2026-05-07 11:00 41.86576 8.69399 4739 ft 206 kts 242°
2026-05-07 11:00 41.85855 8.67634 5177 ft 227 kts 250°
2026-05-07 11:00 41.85642 8.65523 5800 ft 238 kts 281°
2026-05-07 11:01 41.86383 8.63584 6605 ft 242 kts 317°
2026-05-07 11:01 41.87793 8.62385 7454 ft 245 kts 329°
2026-05-07 11:01 41.89267 8.61224 8244 ft 249 kts 326°
2026-05-07 11:01 41.90791 8.60130 9073 ft 253 kts 339°
2026-05-07 11:02 41.92548 8.59872 9731 ft 266 kts
2026-05-07 11:02 41.94321 8.60841 10143 ft 288 kts 28°
2026-05-07 11:02 41.96100 8.62234 10576 ft 306 kts 29°
2026-05-07 11:02 41.97990 8.63709 10959 ft 324 kts 28°
2026-05-07 11:03 42.00008 8.65219 11316 ft 341 kts 27°
2026-05-07 11:03 42.02132 8.66751 11910 ft 351 kts 26°
2026-05-07 11:03 42.04293 8.68282 12648 ft 355 kts 26°
2026-05-07 11:03 42.06489 8.69823 13356 ft 359 kts 26°
2026-05-07 11:04 42.08712 8.71375 14047 ft 364 kts 25°
2026-05-07 11:04 42.10965 8.72947 14737 ft 368 kts 25°
2026-05-07 11:04 42.13246 8.74535 15412 ft 372 kts 25°
2026-05-07 11:04 42.15553 8.76142 16069 ft 376 kts 25°
2026-05-07 11:05 42.17880 8.77766 16723 ft 380 kts 25°
2026-05-07 11:05 42.20240 8.79412 17339 ft 385 kts 25°
2026-05-07 11:05 42.22629 8.81068 17938 ft 389 kts 23°
2026-05-07 11:05 42.25150 8.82388 18532 ft 390 kts 13°
2026-05-07 11:06 42.27793 8.83156 19131 ft 390 kts
2026-05-07 11:06 42.30493 8.83528 19700 ft 392 kts
2026-05-07 11:06 42.33219 8.83815 20271 ft 396 kts
2026-05-07 11:06 42.35967 8.84094 20855 ft 399 kts
2026-05-07 11:07 42.38738 8.84384 21411 ft 402 kts
2026-05-07 11:07 42.41533 8.84685 21969 ft 406 kts
2026-05-07 11:07 42.44352 8.84994 22513 ft 409 kts
2026-05-07 11:07 42.47197 8.85311 23033 ft 413 kts 360°
2026-05-07 11:08 42.50065 8.85633 23571 ft 416 kts 360°
2026-05-07 11:08 42.52963 8.85959 24086 ft 420 kts 359°
2026-05-07 11:08 42.55879 8.86287 24587 ft 424 kts 359°
2026-05-07 11:08 42.58819 8.86620 25079 ft 427 kts 359°
2026-05-07 11:09 42.61790 8.86956 25527 ft 431 kts 359°
2026-05-07 11:09 42.64785 8.87294 25970 ft 435 kts 359°
2026-05-07 11:09 42.67802 8.87638 26415 ft 438 kts 359°
2026-05-07 11:09 42.70838 8.87983 26850 ft 441 kts 359°
2026-05-07 11:10 42.73900 8.88333 27266 ft 444 kts 359°
2026-05-07 11:10 42.76979 8.88684 27676 ft 447 kts 358°
2026-05-07 11:10 42.80078 8.89038 28054 ft 450 kts 358°
2026-05-07 11:10 42.83200 8.89393 28428 ft 452 kts 358°
2026-05-07 11:11 42.86331 8.89752 28781 ft 455 kts 358°
2026-05-07 11:11 42.89488 8.90114 29165 ft 456 kts 358°
2026-05-07 11:11 42.92635 8.90477 29632 ft 455 kts 358°
2026-05-07 11:11 42.95778 8.90841 30073 ft 454 kts 358°
2026-05-07 11:12 42.98922 8.91203 30478 ft 454 kts 358°
2026-05-07 11:12 43.02063 8.91564 30872 ft 454 kts 358°
2026-05-07 11:12 43.05198 8.91925 31272 ft 453 kts 358°
2026-05-07 11:12 43.08328 8.92286 31649 ft 452 kts 358°
2026-05-07 11:13 43.11463 8.92647 32050 ft 451 kts 357°
2026-05-07 11:13 43.14575 8.93008 32439 ft 450 kts 358°
2026-05-07 11:13 43.17683 8.93367 32790 ft 449 kts 358°
2026-05-07 11:13 43.20787 8.93726 33124 ft 448 kts 357°
2026-05-07 11:14 43.23883 8.94086 33458 ft 448 kts 357°
2026-05-07 11:14 43.26976 8.94446 33768 ft 447 kts 357°
2026-05-07 11:14 43.30065 8.94805 34075 ft 447 kts 357°
2026-05-07 11:14 43.33151 8.95165 34389 ft 445 kts 357°
2026-05-07 11:15 43.36237 8.95523 34596 ft 446 kts 357°
2026-05-07 11:15 43.39324 8.95791 34784 ft 445 kts 354°
2026-05-07 11:15 43.42406 8.95857 34970 ft 444 kts 352°
2026-05-07 11:15 43.45493 8.95852 35164 ft 444 kts 352°
2026-05-07 11:16 43.48580 8.95838 35364 ft 445 kts 352°
2026-05-07 11:16 43.51669 8.95835 35560 ft 445 kts 352°
2026-05-07 11:16 43.54761 8.95832 35738 ft 445 kts 351°
2026-05-07 11:16 43.57819 8.95582 35880 ft 439 kts 346°
2026-05-07 11:17 43.63700 8.93820 35955 ft 430 kts 334°
2026-05-07 11:17 43.69077 8.90520 35952 ft 419 kts 322°
2026-05-07 11:18 43.73872 8.86109 35963 ft 414 kts 317°
2026-05-07 11:18 43.78553 8.81502 35961 ft 414 kts 317°
2026-05-07 11:19 43.83237 8.76898 35966 ft 414 kts 317°
2026-05-07 11:19 43.87921 8.72297 35954 ft 414 kts 317°
2026-05-07 11:20 43.92610 8.67685 35947 ft 415 kts 318°
2026-05-07 11:20 43.97311 8.63056 35950 ft 415 kts 318°
2026-05-07 11:21 44.02006 8.58424 35942 ft 415 kts 318°
2026-05-07 11:21 44.06690 8.53791 35943 ft 414 kts 318°
2026-05-07 11:22 44.11381 8.49146 35949 ft 414 kts 318°
2026-05-07 11:22 44.16072 8.44490 35953 ft 414 kts 318°
2026-05-07 11:23 44.20749 8.39839 35960 ft 414 kts 318°
2026-05-07 11:23 44.25581 8.35437 35955 ft 421 kts 325°
2026-05-07 11:24 44.31018 8.32242 35958 ft 430 kts 336°
2026-05-07 11:24 44.36918 8.30555 35969 ft 439 kts 347°
2026-05-07 11:25 44.43059 8.30212 35968 ft 444 kts 352°
2026-05-07 11:25 44.49220 8.30103 35958 ft 443 kts 352°
2026-05-07 11:26 44.55377 8.29976 35965 ft 443 kts 352°
2026-05-07 11:26 44.61526 8.29833 35960 ft 443 kts 352°
2026-05-07 11:27 44.67689 8.29686 35961 ft 443 kts 352°
2026-05-07 11:27 44.73832 8.29538 35961 ft 443 kts 352°
2026-05-07 11:28 44.79971 8.29391 35954 ft 442 kts 352°
2026-05-07 11:28 44.86104 8.29197 35952 ft 439 kts 349°
2026-05-07 11:29 44.92028 8.27774 35956 ft 428 kts 337°
2026-05-07 11:29 44.97473 8.24713 35944 ft 418 kts 325°
2026-05-07 11:30 45.02281 8.20276 35952 ft 412 kts 316°
2026-05-07 11:30 45.06798 8.15352 35934 ft 411 kts 316°
2026-05-07 11:31 45.11322 8.10392 35930 ft 413 kts 316°
2026-05-07 11:31 45.15861 8.05420 35945 ft 413 kts 316°
2026-05-07 11:32 45.22660 7.97962 35951 ft 413 kts 317°
2026-05-07 11:33 45.27189 7.92986 35948 ft 413 kts 317°
2026-05-07 11:33 45.31715 7.88002 35964 ft 414 kts 317°
2026-05-07 11:34 45.36248 7.83002 35962 ft 414 kts 317°
2026-05-07 11:34 45.40775 7.77993 35970 ft 413 kts 317°
2026-05-07 11:35 45.45301 7.72980 35990 ft 414 kts 317°
2026-05-07 11:35 45.49825 7.67956 35983 ft 414 kts 317°
2026-05-07 11:35 45.52084 7.65443 36159 ft 414 kts 317°
2026-05-07 11:36 45.54339 7.62933 36074 ft 412 kts 317°
2026-05-07 11:36 45.58838 7.57915 36012 ft 411 kts 317°
2026-05-07 11:37 45.63329 7.52897 35997 ft 411 kts 317°
2026-05-07 11:37 45.67821 7.47866 35995 ft 411 kts 317°
2026-05-07 11:38 45.72311 7.42830 35987 ft 412 kts 317°
2026-05-07 11:38 45.76807 7.37771 36001 ft 412 kts 318°
2026-05-07 11:39 45.81360 7.32827 36014 ft 412 kts 320°
2026-05-07 11:39 45.86034 7.28081 36032 ft 413 kts 320°
2026-05-07 11:40 45.90712 7.23330 36031 ft 413 kts 320°
2026-05-07 11:40 45.95388 7.18563 36030 ft 413 kts 320°
2026-05-07 11:41 46.00064 7.13783 36025 ft 414 kts 320°
2026-05-07 11:41 46.04735 7.08994 36005 ft 413 kts 320°
2026-05-07 11:42 46.09400 7.04201 36005 ft 414 kts 320°
2026-05-07 11:42 46.14082 6.99386 36011 ft 413 kts 320°
2026-05-07 11:43 46.18742 6.94579 36016 ft 413 kts 321°
2026-05-07 11:43 46.23400 6.89766 36009 ft 413 kts 320°
2026-05-07 11:44 46.28058 6.84940 36008 ft 414 kts 321°
2026-05-07 11:44 46.32720 6.80103 36007 ft 413 kts 321°
2026-05-07 11:45 46.37370 6.75256 36004 ft 413 kts 319°
2026-05-07 11:45 46.41713 6.69890 35997 ft 410 kts 312°
2026-05-07 11:46 46.45492 6.63788 36008 ft 407 kts 305°
2026-05-07 11:46 46.48667 6.57051 35996 ft 406 kts 298°
2026-05-07 11:47 46.51482 6.49977 35997 ft 406 kts 298°
2026-05-07 11:47 46.54275 6.42882 35994 ft 406 kts 298°
2026-05-07 11:48 46.57065 6.35782 35994 ft 406 kts 298°
2026-05-07 11:48 46.59862 6.28650 35989 ft 406 kts 297°
2026-05-07 11:49 46.62642 6.21542 35992 ft 406 kts 297°
2026-05-07 11:49 46.65419 6.14422 35991 ft 406 kts 297°
2026-05-07 11:50 46.68191 6.07300 35995 ft 406 kts 297°
2026-05-07 11:50 46.70959 6.00166 35983 ft 406 kts 297°
2026-05-07 11:51 46.73717 5.93039 35979 ft 406 kts 297°
2026-05-07 11:51 46.76474 5.85896 35990 ft 406 kts 297°
2026-05-07 11:52 46.79325 5.78819 35991 ft 407 kts 301°
2026-05-07 11:52 46.82640 5.72159 35990 ft 408 kts 307°
2026-05-07 11:53 46.86437 5.66026 35989 ft 410 kts 313°
2026-05-07 11:53 46.90562 5.60300 35994 ft 411 kts 314°
2026-05-07 11:54 46.94716 5.54605 35991 ft 411 kts 314°
2026-05-07 11:54 46.98866 5.48899 35999 ft 411 kts 314°
2026-05-07 11:55 47.03017 5.43176 35999 ft 411 kts 314°
2026-05-07 11:55 47.07172 5.37430 36001 ft 413 kts 314°
2026-05-07 11:56 47.11334 5.31664 36008 ft 413 kts 314°
2026-05-07 11:56 47.15502 5.25877 36001 ft 413 kts 314°
2026-05-07 11:57 47.19655 5.20098 36005 ft 412 kts 314°
2026-05-07 11:57 47.23811 5.14297 35643 ft 417 kts 314°
2026-05-07 11:57 47.25917 5.11350 34926 ft 424 kts 314°
2026-05-07 11:58 47.28007 5.08303 34191 ft 427 kts 312°
2026-05-07 11:58 47.30062 5.05166 33440 ft 430 kts 312°
2026-05-07 11:58 47.32119 5.01998 32707 ft 431 kts 312°
2026-05-07 11:58 47.34184 4.98811 31967 ft 433 kts 312°
2026-05-07 11:59 47.36253 4.95617 31214 ft 434 kts 312°
2026-05-07 11:59 47.38330 4.92409 30402 ft 435 kts 312°
2026-05-07 11:59 47.40410 4.89197 29583 ft 435 kts 313°
2026-05-07 11:59 47.42490 4.85983 28784 ft 435 kts 313°
2026-05-07 12:00 47.44562 4.82778 28132 ft 431 kts 312°
2026-05-07 12:00 47.46609 4.79604 27631 ft 425 kts 312°
2026-05-07 12:00 47.48623 4.76477 27123 ft 419 kts 312°
2026-05-07 12:00 47.50610 4.73390 26730 ft 411 kts 312°
2026-05-07 12:01 47.52565 4.70354 26754 ft 408 kts 312°
2026-05-07 12:01 47.54517 4.67316 26781 ft 409 kts 312°
2026-05-07 12:01 47.56469 4.64274 26806 ft 409 kts 312°
2026-05-07 12:01 47.58423 4.61224 26834 ft 409 kts 312°
2026-05-07 12:02 47.60376 4.58171 26859 ft 410 kts 312°
2026-05-07 12:02 47.62327 4.55119 26887 ft 410 kts 312°
2026-05-07 12:02 47.64283 4.52057 26913 ft 410 kts 312°
2026-05-07 12:02 47.66236 4.48995 26939 ft 410 kts 312°
2026-05-07 12:03 47.68189 4.45932 26964 ft 410 kts 312°
2026-05-07 12:03 47.70145 4.42858 26984 ft 410 kts 312°
2026-05-07 12:03 47.72099 4.39784 26994 ft 411 kts 312°
2026-05-07 12:03 47.74052 4.36709 27001 ft 411 kts 312°
2026-05-07 12:04 47.76005 4.33629 27008 ft 411 kts 311°
2026-05-07 12:04 47.77961 4.30542 27011 ft 411 kts 311°
2026-05-07 12:04 47.79916 4.27453 27011 ft 411 kts 311°
2026-05-07 12:04 47.81867 4.24366 27001 ft 411 kts 311°
2026-05-07 12:05 47.83823 4.21265 26505 ft 413 kts 311°
2026-05-07 12:05 47.85780 4.18154 25841 ft 413 kts 310°
2026-05-07 12:05 47.87478 4.14771 25218 ft 408 kts 299°
2026-05-07 12:05 47.88676 4.10994 24654 ft 403 kts 288°
2026-05-07 12:06 47.89403 4.07013 24174 ft 397 kts 282°
2026-05-07 12:06 47.89982 4.03052 23734 ft 390 kts 281°
2026-05-07 12:06 47.90538 3.99136 23252 ft 386 kts 281°
2026-05-07 12:06 47.91089 3.95256 22755 ft 383 kts 281°
2026-05-07 12:07 47.91641 3.91396 22246 ft 381 kts 281°
2026-05-07 12:07 47.92190 3.87565 21732 ft 378 kts 281°
2026-05-07 12:07 47.92738 3.83760 21213 ft 376 kts 281°
2026-05-07 12:07 47.93282 3.79973 20693 ft 374 kts 282°
2026-05-07 12:08 47.93823 3.76210 20187 ft 372 kts 282°
2026-05-07 12:08 47.94359 3.72468 19677 ft 370 kts 282°
2026-05-07 12:08 47.94891 3.68745 19175 ft 367 kts 282°
2026-05-07 12:08 47.95419 3.65045 18660 ft 365 kts 282°
2026-05-07 12:09 47.95943 3.61367 18166 ft 363 kts 283°
2026-05-07 12:09 47.96702 3.57817 17667 ft 360 kts 295°
2026-05-07 12:09 47.97997 3.54688 17283 ft 354 kts 308°
2026-05-07 12:09 47.99649 3.51998 16829 ft 352 kts 314°
2026-05-07 12:10 48.01357 3.49415 16354 ft 349 kts 314°
2026-05-07 12:10 48.03054 3.46865 15891 ft 346 kts 314°
2026-05-07 12:10 48.04737 3.44324 15428 ft 344 kts 314°
2026-05-07 12:10 48.06404 3.41796 14966 ft 341 kts 314°
2026-05-07 12:11 48.08055 3.39279 14508 ft 339 kts 314°
2026-05-07 12:11 48.09689 3.36781 14062 ft 336 kts 314°
2026-05-07 12:11 48.11312 3.34297 13612 ft 334 kts 313°
2026-05-07 12:11 48.12931 3.31813 13163 ft 331 kts 313°
2026-05-07 12:12 48.14529 3.29359 12720 ft 329 kts 313°
2026-05-07 12:12 48.16112 3.26926 12367 ft 324 kts 313°
2026-05-07 12:12 48.17654 3.24553 12201 ft 312 kts 313°
2026-05-07 12:12 48.19132 3.22276 12076 ft 300 kts 313°
2026-05-07 12:13 48.20558 3.20082 11973 ft 288 kts 313°
2026-05-07 12:13 48.21930 3.17973 11954 ft 280 kts 313°
2026-05-07 12:13 48.23287 3.15885 11621 ft 281 kts 313°
2026-05-07 12:13 48.24648 3.13787 11248 ft 282 kts 313°
2026-05-07 12:14 48.26016 3.11678 10888 ft 281 kts 313°
2026-05-07 12:14 48.27373 3.09583 10537 ft 280 kts 313°
2026-05-07 12:14 48.28726 3.07493 10191 ft 279 kts 313°
2026-05-07 12:14 48.30072 3.05414 9929 ft 278 kts 313°
2026-05-07 12:15 48.31429 3.03315 9952 ft 282 kts 313°
2026-05-07 12:15 48.32791 3.01206 9979 ft 282 kts 313°
2026-05-07 12:15 48.34157 2.99091 10003 ft 282 kts 313°
2026-05-07 12:15 48.35520 2.96977 10014 ft 282 kts 313°
2026-05-07 12:16 48.36886 2.94858 10021 ft 283 kts 313°
2026-05-07 12:16 48.38252 2.92735 10025 ft 283 kts 313°
2026-05-07 12:16 48.39621 2.90607 10025 ft 284 kts 313°
2026-05-07 12:16 48.40990 2.88476 10025 ft 284 kts 313°
2026-05-07 12:17 48.42361 2.86340 10022 ft 284 kts 313°
2026-05-07 12:17 48.43731 2.84207 10024 ft 284 kts 313°
2026-05-07 12:17 48.45012 2.81949 10017 ft 283 kts 299°
2026-05-07 12:17 48.45667 2.79192 10022 ft 282 kts 277°
2026-05-07 12:18 48.45788 2.76258 10028 ft 282 kts 272°
2026-05-07 12:18 48.45845 2.73318 10030 ft 282 kts 271°
2026-05-07 12:18 48.45908 2.70376 10029 ft 282 kts 272°
2026-05-07 12:18 48.45980 2.67430 10026 ft 282 kts 272°
2026-05-07 12:19 48.46059 2.64492 10029 ft 281 kts 272°
2026-05-07 12:19 48.46164 2.61581 9932 ft 277 kts 274°
2026-05-07 12:19 48.46297 2.58701 9626 ft 276 kts 274°
2026-05-07 12:19 48.46430 2.55882 9619 ft 280 kts 274°
2026-05-07 12:20 48.46566 2.52959 9610 ft 279 kts 274°
2026-05-07 12:20 48.46701 2.50076 9326 ft 276 kts 274°
2026-05-07 12:20 48.46837 2.47191 8879 ft 278 kts 274°
2026-05-07 12:20 48.46976 2.44300 8537 ft 276 kts 274°
2026-05-07 12:21 48.47115 2.41428 8290 ft 276 kts 274°
2026-05-07 12:21 48.47254 2.38555 8043 ft 275 kts 274°
2026-05-07 12:21 48.47393 2.35689 7795 ft 274 kts 274°
2026-05-07 12:21 48.47531 2.32829 7547 ft 274 kts 274°
2026-05-07 12:22 48.47665 2.29977 7297 ft 274 kts 274°
2026-05-07 12:22 48.47797 2.27123 7047 ft 274 kts 274°
2026-05-07 12:22 48.47999 2.24278 6785 ft 274 kts 285°
2026-05-07 12:22 48.48752 2.21659 6533 ft 274 kts 299°
2026-05-07 12:23 48.49707 2.19188 6327 ft 272 kts 301°
2026-05-07 12:23 48.50683 2.16788 6128 ft 267 kts 301°
2026-05-07 12:23 48.51654 2.14449 5919 ft 260 kts 306°
2026-05-07 12:23 48.52929 2.12625 5744 ft 250 kts 327°
2026-05-07 12:24 48.54382 2.11291 5593 ft 241 kts 331°
2026-05-07 12:24 48.55828 2.10064 5341 ft 237 kts 332°
2026-05-07 12:24 48.57278 2.08903 5064 ft 235 kts 337°
2026-05-07 12:24 48.58805 2.08089 4790 ft 232 kts 345°
2026-05-07 12:25 48.60356 2.07479 4518 ft 230 kts 347°
2026-05-07 12:25 48.61926 2.07180 4223 ft 227 kts 10°
2026-05-07 12:25 48.63324 2.08117 3993 ft 219 kts 43°
2026-05-07 12:25 48.64267 2.09864 3767 ft 215 kts 58°
2026-05-07 12:26 48.65018 2.11818 3408 ft 218 kts 61°
2026-05-07 12:26 48.65731 2.13851 3017 ft 222 kts 62°
2026-05-07 12:26 48.66432 2.15882 2630 ft 213 kts 62°
2026-05-07 12:26 48.67092 2.17779 2354 ft 196 kts 61°
2026-05-07 12:27 48.67700 2.19510 2177 ft 180 kts 60°
2026-05-07 12:27 48.68266 2.21116 1938 ft 167 kts 61°
2026-05-07 12:27 48.68790 2.22603 1696 ft 154 kts 61°
2026-05-07 12:27 48.69272 2.23974 1464 ft 141 kts 60°
2026-05-07 12:28 48.69709 2.25237 1229 ft 130 kts 60°
2026-05-07 12:28 48.70130 2.26432 1081 ft 128 kts 60°
2026-05-07 12:28 48.70567 2.27612 961 ft 128 kts 61°
2026-05-07 12:28 48.70982 2.28804 798 ft 128 kts 60°
2026-05-07 12:29 48.71402 2.30003 629 ft 129 kts 60°
2026-05-07 12:29 48.71824 2.31191 458 ft 128 kts 60°
2026-05-07 12:29 48.72240 2.32377 307 ft 127 kts 60°
2026-05-07 12:29 48.72602 2.33402 300 ft 87 kts 62°
2026-05-07 12:30 48.72834 2.34055 300 ft 58 kts 61°
2026-05-07 12:30 48.72973 2.34466 300 ft 34 kts 70°
2026-05-07 12:30 48.73006 2.34701 300 ft 19 kts 80°
2026-05-07 12:30 48.73024 2.34901 300 ft 19 kts 81°
2026-05-07 12:31 48.73040 2.35080 300 ft 15 kts 86°
2026-05-07 12:31 48.73015 2.35232 300 ft 15 kts 122°
2026-05-07 12:31 48.72951 2.35306 300 ft 10 kts 162°
2026-05-07 12:31 48.72900 2.35368 300 ft 10 kts 97°
2026-05-07 12:32 48.72908 2.35473 300 ft 8 kts 79°
2026-05-07 12:32 48.72881 2.35549 300 ft 9 kts 163°
2026-05-07 12:32 48.72812 2.35580 300 ft 11 kts 160°
2026-05-07 12:32 48.72775 2.35661 300 ft 9 kts 81°
2026-05-07 12:33 48.72791 2.35739 300 ft 1 kts 71°
2026-05-07 12:33 48.72794 2.35763 300 ft 2 kts 98°
2026-05-07 12:33 48.72776 2.35783 300 ft 4 kts 169°
2026-05-07 12:34 48.72760 2.35786 300 ft 2 kts 172°
2026-05-07 12:34 48.72753 2.35788 300 ft 0 kts 172°